This is the latest recevied weather packets stored in our database for station/object LRCK. If no packets are shown the sender has not sent any weather packets the latest 1 day(s).
| Time | Temp. | Humidity | Pressure | Rain* | Wind** | Luminosity | Snow |
|---|---|---|---|---|---|---|---|
| 1777997898 | 13.89° C | 63% | 1015 hPa | - | 4.02 m/s, 130° | - | - |
| 1777996997 | 13.89° C | 63% | 1015 hPa | - | 4.02 m/s, 130° | - | - |
| 1777996098 | 15° C | 59% | 1015 hPa | - | 4.47 m/s, 130° | - | - |
| 1777995197 | 15° C | 59% | 1015 hPa | - | 4.47 m/s, 130° | - | - |
| 1777994305 | 16.11° C | 55% | 1016 hPa | - | 4.47 m/s, 120° | - | - |
| 1777993398 | 16.11° C | 55% | 1016 hPa | - | 4.47 m/s, 120° | - | - |
| 1777992497 | 16.11° C | 52% | 1016 hPa | - | 4.47 m/s, 110° | - | - |
| 1777991597 | 16.11° C | 52% | 1016 hPa | - | 4.47 m/s, 110° | - | - |
| 1777990697 | 17.22° C | 42% | 1016 hPa | - | 4.92 m/s, 120° | - | - |
| 1777989797 | 17.22° C | 42% | 1016 hPa | - | 4.92 m/s, 120° | - | - |
| 1777988936 | 17.22° C | 42% | 1016 hPa | - | 4.92 m/s, 120° | - | - |
| 1777987997 | 17.22° C | 42% | 1016 hPa | - | 4.92 m/s, 120° | - | - |
| 1777987097 | 17.22° C | 42% | 1016 hPa | - | 4.47 m/s, 130° | - | - |
| 1777986197 | 17.22° C | 42% | 1016 hPa | - | 4.47 m/s, 130° | - | - |
| 1777985297 | 17.22° C | 45% | 1016 hPa | - | 4.92 m/s, 120° | - | - |
| 1777984397 | 17.22° C | 45% | 1016 hPa | - | 4.92 m/s, 120° | - | - |
| 1777983497 | 17.78° C | 43% | 1016 hPa | - | 4.47 m/s, 110° | - | - |
| 1777982603 | 17.78° C | 43% | 1016 hPa | - | 5.81 m/s, 120° | - | - |
| 1777981704 | 17.78° C | 43% | 1016 hPa | - | 5.81 m/s, 120° | - | - |
| 1777980828 | 17.78° C | 43% | 1016 hPa | - | 5.81 m/s, 120° | - | - |
| 1777979897 | 17.78° C | 43% | 1016 hPa | - | 4.92 m/s, 120° | - | - |
| 1777978997 | 17.78° C | 43% | 1016 hPa | - | 4.92 m/s, 120° | - | - |
| 1777978098 | 17.78° C | 43% | 1016 hPa | - | 4.02 m/s, 120° | - | - |
| 1777977199 | 17.78° C | 43% | 1016 hPa | - | 4.02 m/s, 120° | - | - |
| 1777976298 | 17.78° C | 40% | 1016 hPa | - | 4.92 m/s, 110° | - | - |
* Rain since midnight (hover to see other rain measurements)
** Current wind speed in m/s (hover to see current wind gust speed)